EN

Hourly Weather Bolshoe Nikitino

Today, 20 October, Tuesday

Time Temperature Precipitation Wind Pressure Humidity
00:00 -2°C° 0.3 mm 4 mps 734 mmHg 95%
01:00 -2°C° 0.3 mm 4 mps 734 mmHg 93%
02:00 0°C° 0 mm 3 mps 734 mmHg 88%
03:00 -1°C° 0 mm 4 mps 735 mmHg 87%
04:00 -1°C° 0 mm 4 mps 735 mmHg 85%
05:00 -1°C° 0 mm 4 mps 735 mmHg 84%
06:00 -1°C° 0 mm 4 mps 735 mmHg 85%
07:00 -1°C° 0 mm 4 mps 736 mmHg 86%
08:00 0°C° 0 mm 3 mps 736 mmHg 87%
09:00 0°C° 0 mm 3 mps 737 mmHg 86%
10:00 0°C° 0 mm 3 mps 737 mmHg 86%
11:00 +1°C° 0 mm 3 mps 738 mmHg 85%
12:00 +1°C° 0.1 mm 3 mps 738 mmHg 85%
13:00 0°C° 0.1 mm 4 mps 739 mmHg 85%
14:00 0°C° 0.1 mm 4 mps 740 mmHg 85%
15:00 0°C° 0.1 mm 4 mps 741 mmHg 84%
16:00 -1°C° 0.1 mm 4 mps 741 mmHg 83%
17:00 -2°C° 0.1 mm 4 mps 742 mmHg 82%
18:00 -2°C° 0 mm 4 mps 742 mmHg 83%
19:00 -1°C° 0 mm 3 mps 743 mmHg 83%
20:00 -2°C° 0 mm 3 mps 743 mmHg 84%
21:00 -2°C° 0 mm 3 mps 743 mmHg 86%
22:00 -2°C° 0 mm 3 mps 744 mmHg 87%
23:00 -2°C° 0 mm 3 mps 744 mmHg 89%

Tomorrow, 21 October, Wednesday

Time Temperature Precipitation Wind Pressure Humidity
00:00 -2°C° 0 mm 3 mps 744 mmHg 90%
01:00 -2°C° 0 mm 3 mps 745 mmHg 91%
02:00 -4°C° 0 mm 3 mps 745 mmHg 92%
03:00 -2°C° 0 mm 3 mps 745 mmHg 91%
04:00 -2°C° 0 mm 3 mps 745 mmHg 90%
05:00 -2°C° 0 mm 3 mps 745 mmHg 89%
06:00 -2°C° 0 mm 3 mps 745 mmHg 88%
07:00 -2°C° 0 mm 3 mps 745 mmHg 87%
08:00 -2°C° 0 mm 2 mps 745 mmHg 86%
09:00 -1°C° 0 mm 2 mps 745 mmHg 82%
10:00 +1°C° 0 mm 2 mps 745 mmHg 78%
11:00 +1°C° 0 mm 2 mps 745 mmHg 75%
12:00 +2°C° 0 mm 2 mps 745 mmHg 73%
13:00 +3°C° 0 mm 1 mps 745 mmHg 72%
14:00 +3°C° 0 mm 1 mps 746 mmHg 71%
15:00 +2°C° 0 mm 1 mps 745 mmHg 76%
16:00 +1°C° 0 mm 1 mps 745 mmHg 80%
17:00 -1°C° 0 mm 0 mps 745 mmHg 85%
18:00 0°C° 0 mm 1 mps 745 mmHg 86%
19:00 0°C° 0 mm 1 mps 745 mmHg 88%
20:00 0°C° 0 mm 1 mps 745 mmHg 89%
21:00 -1°C° 0 mm 1 mps 745 mmHg 90%
22:00 -1°C° 0 mm 1 mps 745 mmHg 90%
23:00 -1°C° 0 mm 1 mps 745 mmHg 91%

Day after tomorrow, 22 October, Thursday

Time Temperature Precipitation Wind Pressure Humidity
00:00 -1°C° 0 mm 1 mps 745 mmHg 91%
01:00 -1°C° 0 mm 1 mps 745 mmHg 92%
02:00 -1°C° 0 mm 1 mps 745 mmHg 93%
03:00 0°C° 0 mm 1 mps 745 mmHg 94%
04:00 -2°C° 0 mm 2 mps 744 mmHg 94%
05:00 -1°C° 0 mm 2 mps 744 mmHg 95%
06:00 -1°C° 0 mm 2 mps 744 mmHg 94%
07:00 +1°C° 0 mm 2 mps 744 mmHg 94%
08:00 0°C° 0 mm 3 mps 744 mmHg 94%
09:00 +1°C° 0 mm 3 mps 743 mmHg 93%
10:00 +1°C° 0 mm 3 mps 743 mmHg 92%
11:00 +1°C° 0 mm 3 mps 743 mmHg 91%
12:00 +2°C° 0 mm 3 mps 742 mmHg 92%
13:00 +2°C° 0 mm 3 mps 742 mmHg 92%
14:00 +2°C° 0 mm 3 mps 742 mmHg 93%
15:00 +1°C° 0 mm 4 mps 741 mmHg 93%
16:00 +1°C° 0 mm 4 mps 741 mmHg 93%
17:00 +1°C° 0 mm 4 mps 740 mmHg 93%
18:00 +1°C° 0.4 mm 4 mps 740 mmHg 94%
19:00 +1°C° 0.4 mm 4 mps 739 mmHg 94%
20:00 +2°C° 0.4 mm 5 mps 738 mmHg 95%
21:00 +2°C° 0.9 mm 5 mps 738 mmHg 95%
22:00 +2°C° 0.9 mm 5 mps 737 mmHg 95%
23:00 +2°C° 0.9 mm 5 mps 736 mmHg 95%

23 October, Friday

Time Temperature Precipitation Wind Pressure Humidity
00:00 +2°C° 1 mm 5 mps 736 mmHg 95%
01:00 +3°C° 1 mm 4 mps 736 mmHg 96%
02:00 +4°C° 1 mm 4 mps 735 mmHg 97%
03:00 +5°C° 0.4 mm 4 mps 735 mmHg 96%
04:00 +7°C° 0.4 mm 3 mps 735 mmHg 96%
05:00 +8°C° 0.4 mm 3 mps 734 mmHg 96%
06:00 +8°C° 0.1 mm 3 mps 734 mmHg 96%
07:00 +8°C° 0.1 mm 3 mps 734 mmHg 95%
08:00 +8°C° 0.1 mm 4 mps 734 mmHg 94%
09:00 +8°C° 0 mm 4 mps 734 mmHg 92%
10:00 +10°C° 0 mm 4 mps 734 mmHg 89%
11:00 +10°C° 0 mm 4 mps 734 mmHg 87%
12:00 +10°C° 0.4 mm 4 mps 733 mmHg 89%
13:00 +10°C° 0.4 mm 3 mps 732 mmHg 92%
14:00 +10°C° 0.4 mm 3 mps 732 mmHg 94%
15:00 +10°C° 1 mm 3 mps 731 mmHg 95%
16:00 +9°C° 1 mm 3 mps 731 mmHg 95%
17:00 +9°C° 1 mm 3 mps 730 mmHg 96%
18:00 +9°C° 0.5 mm 3 mps 730 mmHg 96%
19:00 +9°C° 0.5 mm 3 mps 730 mmHg 96%
20:00 +9°C° 0.5 mm 3 mps 730 mmHg 96%
21:00 +9°C° 0.3 mm 3 mps 730 mmHg 95%
22:00 +9°C° 0.3 mm 3 mps 730 mmHg 95%
23:00 +9°C° 0.3 mm 3 mps 730 mmHg 94%

24 October, Saturday

Time Temperature Precipitation Wind Pressure Humidity
00:00 +8°C° 0.1 mm 4 mps 730 mmHg 93%
01:00 +7°C° 0.1 mm 4 mps 730 mmHg 92%
02:00 +7°C° 0.1 mm 4 mps 730 mmHg 91%
03:00 +7°C° 0.2 mm 4 mps 731 mmHg 90%
04:00 +7°C° 0.2 mm 4 mps 731 mmHg 90%
05:00 +7°C° 0.2 mm 4 mps 732 mmHg 89%
06:00 +7°C° 0.1 mm 4 mps 732 mmHg 86%
07:00 +6°C° 0.1 mm 4 mps 733 mmHg 84%
08:00 +6°C° 0.1 mm 4 mps 734 mmHg 81%
09:00 +5°C° 0 mm 4 mps 734 mmHg 78%
10:00 +5°C° 0 mm 4 mps 735 mmHg 75%
11:00 +5°C° 0 mm 4 mps 736 mmHg 73%
12:00 +4°C° 0 mm 4 mps 736 mmHg 73%
13:00 +4°C° 0 mm 4 mps 737 mmHg 73%
14:00 +4°C° 0 mm 3 mps 737 mmHg 72%
15:00 +4°C° 0 mm 3 mps 737 mmHg 74%
16:00 +4°C° 0 mm 2 mps 737 mmHg 75%
17:00 +4°C° 0 mm 2 mps 738 mmHg 77%
18:00 +4°C° 0 mm 1 mps 738 mmHg 79%
19:00 +4°C° 0 mm 1 mps 738 mmHg 80%
20:00 +3°C° 0 mm 1 mps 738 mmHg 82%
21:00 +3°C° 0 mm 1 mps 738 mmHg 84%
22:00 +1°C° 0 mm 0 mps 738 mmHg 86%
23:00 0°C° 0 mm 0 mps 739 mmHg 88%

25 October, Sunday

Time Temperature Precipitation Wind Pressure Humidity
00:00 0°C° 0 mm 0 mps 739 mmHg 89%
01:00 0°C° 0 mm 0 mps 739 mmHg 89%
02:00 0°C° 0 mm 0 mps 739 mmHg 90%
03:00 0°C° 0 mm 0 mps 739 mmHg 89%
04:00 0°C° 0 mm 0 mps 739 mmHg 89%
05:00 0°C° 0 mm 0 mps 739 mmHg 89%
06:00 0°C° 0 mm 0 mps 739 mmHg 87%
07:00 +1°C° 0 mm 1 mps 739 mmHg 85%
08:00 +2°C° 0 mm 1 mps 740 mmHg 83%
09:00 +2°C° 0 mm 1 mps 740 mmHg 79%
10:00 +3°C° 0 mm 1 mps 740 mmHg 75%
11:00 +4°C° 0 mm 1 mps 741 mmHg 71%
12:00 +4°C° 0 mm 1 mps 741 mmHg 72%
13:00 +4°C° 0 mm 1 mps 741 mmHg 72%
14:00 +3°C° 0 mm 2 mps 741 mmHg 72%
15:00 +3°C° 0 mm 1 mps 741 mmHg 77%
16:00 +2°C° 0 mm 1 mps 741 mmHg 82%
17:00 +1°C° 0 mm 1 mps 742 mmHg 87%
18:00 +1°C° 0 mm 1 mps 742 mmHg 89%
19:00 +1°C° 0 mm 1 mps 742 mmHg 91%
20:00 -2°C° 0 mm 2 mps 742 mmHg 94%
21:00 -2°C° 0 mm 2 mps 743 mmHg 94%
22:00 -2°C° 0 mm 2 mps 743 mmHg 95%
23:00 -2°C° 0 mm 2 mps 743 mmHg 95%

26 October, Monday

Time Temperature Precipitation Wind Pressure Humidity
00:00 -2°C° 0 mm 2 mps 743 mmHg 95%
01:00 -2°C° 0 mm 2 mps 743 mmHg 95%
02:00 -2°C° 0 mm 2 mps 744 mmHg 95%
03:00 -2°C° 0 mm 2 mps 744 mmHg 96%
04:00 -2°C° 0 mm 2 mps 744 mmHg 96%
05:00 -2°C° 0 mm 2 mps 744 mmHg 96%
06:00 -2°C° 0 mm 2 mps 745 mmHg 94%
07:00 -1°C° 0 mm 2 mps 745 mmHg 92%
08:00 -1°C° 0 mm 2 mps 745 mmHg 90%
09:00 0°C° 0 mm 3 mps 745 mmHg 85%
10:00 +1°C° 0 mm 3 mps 746 mmHg 80%
11:00 +3°C° 0 mm 3 mps 746 mmHg 75%
12:00 +3°C° 0 mm 3 mps 746 mmHg 73%
13:00 +4°C° 0 mm 2 mps 746 mmHg 72%
14:00 +4°C° 0 mm 2 mps 746 mmHg 70%
15:00 +3°C° 0 mm 2 mps 746 mmHg 76%
16:00 +3°C° 0 mm 2 mps 746 mmHg 82%
17:00 +2°C° 0 mm 2 mps 746 mmHg 89%
18:00 +1°C° 0 mm 2 mps 746 mmHg 90%
19:00 +1°C° 0 mm 2 mps 746 mmHg 92%
20:00 +1°C° 0 mm 2 mps 746 mmHg 94%
21:00 -1°C° 0 mm 2 mps 746 mmHg 94%
22:00 -1°C° 0 mm 2 mps 746 mmHg 95%
23:00 -1°C° 0 mm 3 mps 746 mmHg 95%
Show more